COSMOS 1275 DEB, 12654

Orbit data source: Space-Track

COSMOS 1275 DEB, 12654 is space debris in LEO originally from a launch on Thu, 04 Jun 1981 UTC launched from the Plesetsk Missile And Space Complex (PKMTR). Debris objects in space refer to the collection of defunct objects orbiting the Earth. Examples of debris include non-operational satellites, rocket bodies, and fragments generated from explosions, collisions, or faulty payload assembly.

Loading next visibility...
Identifier
12654, 1981-053J
Orbit
LEO
Country
Flag of CISCIS
Related business
Manufacturer
Unknown
Mission
Spacecraft
Bus & Motor
Unknown
Mass
Unknown
Launch date (UTC)
1981-06-04 (45 years ago)
Launch vehicle
Unknown
Launch site
Plesetsk Missile And Space Complex (PKMTR)
Object type
Payload
Rocket body
Debris
Shape & HBR
Unknown shape, 0.2 m
Radar Cross Section
Medium (>0.1 m² and <1 m²)

Expand to show TLE details & history
Last TLE update: 9 hours ago

TLE from 9 hours ago
0 COSMOS 1275 DEB
1 12654U 81053J   25340.60275666  .00001595  00000-0  91078-3 0  9995
2 12654  82.9811  10.1411 0043473 103.5762  18.7636 14.08606491260987
Epoch: 2025-12-06T14:27Z
TLE epoch observation values (Epoch: 2025-12-06T14:27:58.175Z)
Latitude
56.92956°
Longitude
-113.32008°
Altitude
843.89 km
Speed
7.452 km/s
True Right ascension
11h 57m 12s
True Declination
56° 46' 26"
Sunlit
Object was in daylight at epoch
Visualization orbit readout
Latitude
Unknown
Longitude
Unknown
Altitude
Unknown
Speed
Unknown
Apparent Right ascension
Unknown
Apparent Declination
Unknown
Sunlit
N/A
Visualization observer readout
Local Sidereal Time
21:53:12
Azimuth
Unknown
Elevation
Unknown
Doppler factor
Unknown
Orbital elements
Apogee altitude
892.717 km
Perigee altitude
829.773 km
Semi-major axis
7,239.382 km
Eccentricity
0.00435
Inclination
82.9811°
RAAN
10.1411°
Arg. of periapsis
103.5762°
True anomaly
18.92467°
Mean anomaly
18.7636°
Eccentric anomaly
18.84405°
Mean motion
3.52364 °/min
Orbital period
102.17 mins
BSTAR
0.00091078
Loading maneuver chart data...
Computing Atmospheric mass density...
Loading historical data...
Loading historical data...
Loading historical data...
Loading historical data...
Loading historical data...
Loading historical data...
Loading historical data...

Documentation

Showing up to 5 results
|